K4MGY-13 Weather Reports


Display with metric or nautical units.
time (UTC)temp
F
wind
direction
speed
MPH
gust
MPH
rain 1hr
in
rain 24hr
in
rain mn
in
humidity
%
barometer
mb
20260507134743 55 117 1.0 2.0 0.00 0.07 0.01 68 1015.6
20260507134212 55 100 1.0 3.0 0.00 0.07 0.01 69 1015.9
20260507133643 55 93 1.0 3.0 0.00 0.07 0.01 72 1015.9
20260507132611 54 109 1.0 2.0 0.00 0.08 0.01 74 1015.6
20260507132042 53 94 1.0 3.0 0.00 0.08 0.01 77 1015.9
20260507131543 53 87 1.0 3.0 0.00 0.08 0.01 76 1015.6
20260507131041 53 77 1.0 5.0 0.00 0.08 0.01 77 1015.6
20260507130541 53 86 2.0 3.0 0.00 0.09 0.01 77 1015.9
20260507130011 52 103 1.0 2.0 0.00 0.10 0.01 82 1015.9
20260507125441 52 83 1.0 2.0 0.00 0.13 0.01 80 1015.9
20260507124911 52 80 1.0 3.0 0.00 0.16 0.01 81 1015.9
20260507124342 52 77 1.0 3.0 0.00 0.18 0.01 81 1015.9
20260507123812 51 84 2.0 2.0 0.00 0.18 0.01 82 1015.9
20260507123241 51 72 2.0 3.0 0.00 0.19 0.01 82 1015.9
20260507122711 51 93 2.0 3.0 0.00 0.20 0.01 83 1015.6
20260507122213 51 72 2.0 3.0 0.00 0.20 0.01 83 1015.9
20260507121711 51 96 1.0 2.0 0.00 0.20 0.01 84 1015.6
20260507121211 51 80 1.0 3.0 0.00 0.20 0.01 84 1015.6
20260507120711 51 89 2.0 3.0 0.00 0.20 0.01 84 1015.9
20260507120211 51 78 2.0 3.0 0.00 0.20 0.01 83 1015.6
20260507115641 51 74 1.0 2.0 0.00 0.20 0.01 85 1015.6
20260507115142 51 78 2.0 3.0 0.00 0.20 0.01 84 1015.6
20260507114613 50 63 2.0 3.0 0.00 0.20 0.01 87 1015.6
20260507114112 50 88 1.0 2.0 0.00 0.20 0.01 87 1015.6
20260507113613 50 95 2.0 3.0 0.00 0.20 0.01 87 1015.6
20260507113044 50 74 1.0 2.0 0.00 0.20 0.01 87 1015.2
20260507112542 50 96 1.0 2.0 0.00 0.20 0.01 87 1015.2
20260507112041 50 81 1.0 2.0 0.00 0.20 0.01 87 1015.2
20260507111511 50 89 1.0 2.0 0.00 0.20 0.01 88 1015.2
20260507110941 50 78 1.0 3.0 0.00 0.20 0.01 87 1014.9
20260507110412 50 96 1.0 2.0 0.00 0.21 0.01 86 1014.9
20260507105912 50 94 1.0 2.0 0.00 0.22 0.01 87 1014.9
20260507105411 51 76 2.0 3.0 0.00 0.23 0.01 87 1014.6
20260507104341 51 81 1.0 3.0 0.00 0.25 0.01 87 1014.6
20260507103811 51 79 2.0 3.0 0.00 0.26 0.01 88 1014.6
20260507103313 51 77 1.0 3.0 0.00 0.27 0.01 86 1014.6
20260507102741 51 70 1.0 3.0 0.00 0.30 0.01 87 1014.6
20260507102211 51 101 1.0 2.0 0.00 0.32 0.01 87 1014.6
20260507101711 51 27 1.0 3.0 0.00 0.33 0.01 88 1014.5
20260507101141 51 88 2.0 3.0 0.00 0.35 0.01 88 1014.2
20260507100641 51 75 1.0 3.0 0.00 0.35 0.01 88 1014.2
20260507100141 51 58 2.0 3.0 0.00 0.40 0.01 89 1014.6
20260507095641 51 77 1.0 2.0 0.00 0.43 0.01 90 1014.9
20260507095141 51 89 1.0 2.0 0.00 0.44 0.01 90 1014.6
20260507094611 51 90 1.0 3.0 0.00 0.49 0.01 89 1014.2
20260507094112 51 103 1.0 2.0 0.00 0.58 0.01 89 1014.2
20260507093541 51 89 1.0 2.0 0.00 0.64 0.01 89 1014.2
20260507093042 51 67 1.0 2.0 0.00 0.65 0.01 89 1014.2
20260507092511 51 86 1.0 2.0 0.00 0.65 0.01 88 1014.2
20260507092012 51 102 1.0 2.0 0.00 0.66 0.01 88 1014.6
20260507091511 51 122 1.0 2.0 0.00 0.68 0.01 89 1014.6
20260507090941 51 121 2.0 3.0 0.00 0.71 0.01 89 1014.6
20260507085911 52 98 1.0 3.0 0.00 0.74 0.01 89 1014.2
20260507085342 52 89 1.0 2.0 0.00 0.74 0.01 89 1014.2
20260507084811 52 111 1.0 2.0 0.00 0.75 0.01 90 1013.9
20260507083713 52 28 2.0 3.0 0.00 0.79 0.01 90 1014.6
20260507083141 52 84 2.0 3.0 0.00 0.80 0.01 91 1014.2
20260507082643 52 69 1.0 3.0 0.00 0.81 0.01 91 1014.6
20260507082113 52 90 1.0 2.0 0.00 0.81 0.01 92 1013.9
20260507081611 52 71 1.0 2.0 0.00 0.81 0.01 92 1013.9
20260507081111 52 95 1.0 2.0 0.00 0.81 0.01 92 1013.9
20260507080541 52 85 1.0 2.0 0.00 0.81 0.01 92 1014.2
20260507080041 52 92 1.0 2.0 0.00 0.81 0.01 92 1014.6
20260507075511 52 105 1.0 2.0 0.00 0.81 0.01 92 1014.2
20260507075011 52 97 1.0 2.0 0.00 0.81 0.01 92 1013.9
20260507074442 52 94 1.0 2.0 0.00 0.81 0.01 93 1014.2
20260507073911 52 81 2.0 2.0 0.00 0.81 0.01 93 1014.2
20260507073341 52 85 1.0 2.0 0.00 0.81 0.01 93 1014.2
20260507072811 52 99 1.0 2.0 0.01 0.81 0.01 94 1014.2
20260507072311 52 84 1.0 2.0 0.01 0.81 0.01 93 1014.2
20260507071741 52 95 1.0 2.0 0.01 0.81 0.01 93 1014.6
20260507071211 52 99 1.0 2.0 0.01 0.81 0.01 93 1014.6
20260507070141 52 92 1.0 2.0 0.01 0.81 0.01 93 1014.2
20260507065641 52 95 1.0 2.0 0.01 0.81 0.01 92 1014.6
20260507065141 52 93 1.0 2.0 0.01 0.81 0.01 92 1014.6
20260507064612 52 97 1.0 2.0 0.01 0.81 0.01 92 1014.6
20260507064041 53 90 1.0 2.0 0.01 0.81 0.01 92 1014.6
20260507063541 53 77 1.0 3.0 0.01 0.81 0.01 92 1014.9
20260507063011 53 84 1.0 3.0 0.00 0.80 0.00 92 1014.6
20260507062441 53 58 2.0 5.0 0.00 0.80 0.00 92 1014.9
20260507061941 53 93 1.0 2.0 0.00 0.80 0.00 93 1014.6
20260507061441 53 92 1.0 2.0 0.00 0.80 0.00 93 1014.9
20260507060941 53 81 1.0 2.0 0.00 0.80 0.00 94 1014.6
20260507060441 53 71 1.0 2.0 0.00 0.80 0.00 95 1014.6
20260507055911 53 59 2.0 3.0 0.00 0.80 0.00 95 1014.6
20260507055411 53 84 1.0 2.0 0.00 0.80 0.00 96 1014.2
20260507054913 53 63 2.0 2.0 0.00 0.80 0.00 96 1014.5
20260507054411 53 51 2.0 3.0 0.00 0.80 0.00 96 1014.6
20260507053911 53 73 1.0 2.0 0.00 0.80 0.00 96 1014.2
20260507053341 53 89 1.0 2.0 0.00 0.80 0.00 96 1014.2
20260507052841 53 94 1.0 2.0 0.00 0.80 0.00 96 1014.2
20260507052340 53 78 1.0 2.0 0.00 0.80 0.00 96 1014.6
20260507051811 53 65 2.0 3.0 0.00 0.80 0.00 96 1014.9
20260507051312 53 76 1.0 2.0 0.00 0.80 0.00 96 1014.6
20260507050741 53 102 1.0 2.0 0.00 0.80 0.00 97 1015.2
20260507050240 53 86 1.0 2.0 0.00 0.80 0.00 96 1015.2
20260507045741 53 80 1.0 2.0 0.00 0.80 0.80 96 1014.9
20260507045211 53 83 1.0 2.0 0.00 0.80 0.80 96 1015.2
20260507044711 53 77 1.0 2.0 0.00 0.80 0.80 96 1015.2
20260507044141 53 95 1.0 2.0 0.00 0.80 0.80 96 1015.2
20260507043611 53 95 1.0 2.0 0.00 0.80 0.80 96 1015.6
20260507043111 53 89 1.0 2.0 0.00 0.80 0.80 96 1015.6
20260507042543 53 88 1.0 2.0 0.00 0.80 0.80 96 1015.6
20260507042041 53 85 1.0 2.0 0.00 0.80 0.80 96 1015.2
20260507041511 53 95 1.0 2.0 0.00 0.80 0.80 96 1015.2
20260507040941 53 84 1.0 2.0 0.00 0.80 0.80 96 1014.9
20260507040441 53 89 1.0 2.0 0.00 0.80 0.80 96 1014.9
20260507035941 53 96 1.0 2.0 0.00 0.80 0.80 96 1014.6
20260507035441 53 102 1.0 2.0 0.00 0.80 0.80 96 1015.2
20260507034942 53 114 1.0 2.0 0.00 0.80 0.80 96 1015.2
20260507034411 53 110 1.0 2.0 0.00 0.80 0.80 96 1015.2
20260507033911 53 96 1.0 2.0 0.00 0.80 0.80 96 1014.9
20260507032841 53 95 1.0 2.0 0.00 0.80 0.80 96 1014.9
20260507032341 53 90 1.0 2.0 0.00 0.80 0.80 96 1015.2
20260507031342 53 86 1.0 2.0 0.00 0.80 0.80 95 1015.2
20260507030810 53 105 1.0 2.0 0.00 0.80 0.80 95 1014.9
20260507030241 53 81 1.0 2.0 0.00 0.80 0.80 95 1015.2
20260507025711 53 101 1.0 2.0 0.00 0.80 0.80 95 1014.9
20260507025211 53 69 2.0 3.0 0.01 0.80 0.80 95 1014.6
20260507024710 53 86 2.0 3.0 0.01 0.80 0.80 96 1014.9
20260507024210 53 64 2.0 3.0 0.02 0.80 0.80 96 1014.6
20260507023712 53 91 1.0 2.0 0.02 0.80 0.80 96 1014.9
20260507023140 53 80 1.0 3.0 0.02 0.80 0.80 96 1014.2
20260507022611 54 76 1.0 2.0 0.02 0.80 0.80 96 1014.2
20260507022040 54 97 2.0 2.0 0.02 0.80 0.80 96 1014.2
20260507021541 54 82 2.0 3.0 0.03 0.80 0.80 96 1014.6
20260507021011 54 65 2.0 3.0 0.03 0.80 0.80 95 1014.2
20260507020440 54 58 1.0 2.0 0.03 0.80 0.80 95 1014.2
20260507015940 54 70 1.0 2.0 0.03 0.80 0.80 95 1014.2
20260507015411 54 35 3.0 6.0 0.03 0.79 0.79 95 1014.6
20260507014840 55 65 2.0 5.0 0.03 0.79 0.79 95 1014.2
20260507014310 55 43 2.0 7.0 0.02 0.78 0.78 96 1015.2
20260507013740 55 74 1.0 2.0 0.02 0.78 0.78 97 1014.9
20260507013210 55 112 1.0 2.0 0.02 0.78 0.78 97 1014.9
20260507012640 55 107 1.0 3.0 0.02 0.78 0.78 97 1014.6
20260507012140 55 95 1.0 3.0 0.02 0.78 0.78 97 1014.9
20260507011641 55 188 1.0 2.0 0.02 0.78 0.78 97 1014.9
20260507010041 55 83 1.0 3.0 0.01 0.77 0.77 97 1014.2
20260507005540 55 74 1.0 2.0 0.00 0.76 0.76 96 1013.9
20260507005010 55 83 2.0 5.0 0.00 0.76 0.76 97 1014.6
20260507004511 55 95 0.0 2.0 0.00 0.76 0.76 96 1013.9
20260507003941 55 110 1.0 2.0 0.00 0.76 0.76 96 1013.5
20260507003441 55 145 2.0 3.0 0.00 0.76 0.76 96 1013.2
20260507002911 55 109 1.0 2.0 0.00 0.76 0.76 96 1012.9
20260507002340 55 118 1.0 3.0 0.00 0.76 0.76 96 1012.9
20260507001840 55 140 2.0 3.0 0.00 0.76 0.76 96 1012.9
20260507001310 55 146 2.0 3.0 0.00 0.76 0.76 96 1012.9
20260507000740 55 140 2.0 3.0 0.00 0.76 0.76 96 1012.9
20260507000212 55 150 2.0 3.0 0.00 0.76 0.76 96 1013.2
20260506235640 55 145 2.0 3.0 0.00 0.76 0.76 96 1012.9
20260506235143 55 133 1.0 2.0 0.00 0.76 0.76 96 1012.9
20260506234642 55 119 2.0 3.0 0.00 0.76 0.76 95 1013.5
20260506234110 55 182 1.0 3.0 0.00 0.76 0.76 95 1013.5
20260506233611 55 113 1.0 2.0 0.00 0.76 0.76 95 1013.5
20260506233040 55 139 2.0 5.0 0.00 0.76 0.76 95 1013.5
20260506232510 55 132 2.0 3.0 0.00 0.76 0.76 95 1013.5
20260506231940 56 109 1.0 3.0 0.00 0.76 0.76 95 1013.2
20260506231410 56 70 2.0 3.0 0.00 0.76 0.76 95 1014.2
20260506230910 55 250 1.0 2.0 0.00 0.76 0.76 95 1013.9
20260506225840 56 84 2.0 3.0 0.00 0.76 0.76 95 1013.5
20260506225311 55 96 2.0 3.0 0.00 0.76 0.76 95 1013.5
20260506224811 55 51 2.0 5.0 0.00 0.76 0.76 95 1013.9
20260506223810 55 90 2.0 3.0 0.00 0.76 0.76 96 1014.2
20260506223312 55 124 2.0 3.0 0.00 0.76 0.76 95 1014.2
20260506222740 55 158 1.0 3.0 0.00 0.76 0.76 95 1013.9
20260506222244 55 137 1.0 3.0 0.00 0.76 0.76 95 1014.2
20260506221740 55 78 1.0 5.0 0.00 0.76 0.76 95 1014.2
20260506221211 55 139 2.0 3.0 0.00 0.76 0.76 95 1014.2
20260506220641 55 115 1.0 3.0 0.00 0.76 0.76 95 1014.6
20260506220140 55 112 1.0 2.0 0.00 0.77 0.76 95 1014.6
20260506215610 55 136 2.0 3.0 0.00 0.78 0.76 95 1014.6
20260506215040 55 151 2.0 3.0 0.00 0.78 0.76 95 1014.2
20260506214512 55 116 2.0 3.0 0.00 0.78 0.76 95 1013.5
20260506213942 55 148 2.0 3.0 0.00 0.78 0.76 95 1013.5
20260506213412 55 111 2.0 3.0 0.00 0.78 0.76 94 1013.5
20260506212910 55 107 2.0 3.0 0.00 0.78 0.76 94 1013.5
20260506211840 55 68 2.0 3.0 0.01 0.78 0.76 94 1013.9
20260506210812 55 153 2.0 3.0 0.01 0.78 0.76 95 1012.9
20260506210310 55 57 1.0 3.0 0.01 0.78 0.76 95 1012.5
20260506205811 55 67 2.0 3.0 0.01 0.78 0.76 95 1013.2
20260506205240 55 106 2.0 3.0 0.01 0.78 0.76 95 1013.2
20260506204740 55 39 2.0 3.0 0.01 0.78 0.76 95 1013.5
20260506204210 55 91 2.0 5.0 0.01 0.78 0.76 95 1013.5
20260506203640 55 61 2.0 3.0 0.01 0.78 0.76 95 1013.5
20260506203140 54 73 1.0 3.0 0.01 0.78 0.76 95 1013.5
20260506202610 54 60 2.0 5.0 0.01 0.78 0.76 95 1013.5
20260506202110 54 9 2.0 5.0 0.00 0.77 0.75 95 1013.5
20260506201610 54 55 3.0 5.0 0.00 0.77 0.75 95 1013.5
20260506201111 54 49 3.0 5.0 0.00 0.77 0.75 95 1013.5
20260506200613 55 65 2.0 5.0 0.00 0.77 0.75 94 1013.5
20260506200110 55 85 2.0 3.0 0.01 0.77 0.75 95 1013.5
20260506194541 55 82 2.0 3.0 0.01 0.77 0.75 95 1013.2
20260506194010 55 74 2.0 3.0 0.01 0.77 0.75 95 1013.2
20260506193440 55 62 2.0 2.0 0.01 0.77 0.75 94 1012.9
20260506192941 55 92 1.0 3.0 0.01 0.77 0.75 95 1013.2
20260506192440 55 9 1.0 3.0 0.01 0.77 0.75 96 1013.5
20260506191940 55 68 2.0 5.0 0.01 0.77 0.75 95 1013.2
20260506191440 54 56 1.0 2.0 0.01 0.77 0.75 95 1013.2
20260506190940 54 51 2.0 3.0 0.01 0.77 0.75 95 1013.9
20260506190410 54 50 2.0 5.0 0.01 0.77 0.75 96 1013.5
20260506185840 54 45 3.0 5.0 0.00 0.76 0.74 96 1013.5
20260506185340 55 63 2.0 3.0 0.00 0.76 0.74 96 1013.9
20260506184810 55 62 2.0 3.0 0.00 0.76 0.74 96 1014.2
20260506184310 55 8 1.0 3.0 0.00 0.76 0.74 96 1013.9
20260506183740 55 48 2.0 5.0 0.00 0.76 0.74 96 1014.2
20260506182710 55 44 2.0 5.0 0.00 0.76 0.74 96 1013.9
20260506182210 55 172 1.0 3.0 0.00 0.76 0.74 96 1013.9
20260506181640 55 87 1.0 2.0 0.00 0.76 0.74 96 1013.5
20260506181141 55 43 3.0 5.0 0.00 0.76 0.74 96 1013.5
20260506180140 55 68 2.0 3.0 0.00 0.76 0.74 95 1013.5
20260506175641 55 116 2.0 5.0 0.00 0.76 0.74 95 1013.5
20260506175140 55 43 2.0 5.0 0.00 0.76 0.74 95 1013.2
20260506174610 55 72 2.0 5.0 0.00 0.76 0.74 95 1013.2
20260506174040 55 52 1.0 3.0 0.00 0.76 0.74 95 1013.2
20260506173540 55 59 2.0 3.0 0.00 0.76 0.74 95 1013.2
20260506173010 55 74 1.0 3.0 0.00 0.76 0.74 94 1013.2
20260506172440 55 202 1.0 3.0 0.00 0.76 0.74 94 1013.2
20260506171910 55 31 1.0 3.0 0.00 0.76 0.74 94 1013.5
20260506171410 55 15 2.0 5.0 0.00 0.76 0.74 94 1013.5
20260506170840 55 88 1.0 2.0 0.00 0.76 0.74 94 1013.5
20260506170310 55 31 1.0 5.0 0.00 0.76 0.74 94 1013.2
20260506165740 55 60 2.0 5.0 0.00 0.76 0.74 94 1012.9
20260506165240 55 75 1.0 2.0 0.00 0.76 0.74 95 1013.2
20260506164712 55 106 1.0 3.0 0.00 0.76 0.74 94 1013.5
20260506164210 55 236 0.0 2.0 0.00 0.76 0.74 95 1013.5
20260506163640 55 115 1.0 3.0 0.00 0.76 0.74 95 1013.5
20260506162040 55 76 1.0 3.0 0.00 0.76 0.74 94 1013.2
20260506161542 55 62 2.0 5.0 0.00 0.76 0.74 94 1013.2
20260506161039 55 72 1.0 3.0 0.00 0.76 0.74 94 1013.2
20260506160542 55 159 2.0 6.0 0.00 0.76 0.74 94 1013.2
20260506160039 55 129 1.0 3.0 0.00 0.76 0.74 94 1013.2
20260506155542 55 44 2.0 5.0 0.00 0.76 0.74 94 1013.2
20260506155010 55 158 1.0 2.0 0.00 0.76 0.74 95 1013.5
20260506154510 55 105 0.0 2.0 0.00 0.76 0.74 95 1013.2
20260506153440 54 33 1.0 3.0 0.00 0.76 0.74 95 1013.5
20260506152940 54 54 2.0 2.0 0.00 0.76 0.74 94 1013.2
20260506152409 54 55 2.0 5.0 0.00 0.76 0.74 94 1013.5
20260506151340 54 25 1.0 3.0 0.00 0.76 0.74 95 1013.2
20260506150839 55 31 2.0 5.0 0.00 0.76 0.74 95 1013.2
20260506150310 55 38 2.0 3.0 0.00 0.76 0.74 95 1012.9
20260506145739 55 31 2.0 6.0 0.00 0.76 0.74 95 1012.9
20260506145240 55 35 1.0 2.0 0.00 0.76 0.74 95 1012.9
20260506144709 55 47 2.0 5.0 0.00 0.76 0.74 95 1012.9
20260506143609 55 67 2.0 3.0 0.00 0.76 0.74 95 1012.2
20260506143040 54 67 1.0 3.0 0.00 0.76 0.74 95 1012.5
20260506142541 55 39 2.0 3.0 0.01 0.76 0.74 95 1012.2
20260506142010 55 38 2.0 5.0 0.01 0.76 0.74 95 1012.2
20260506141509 55 48 1.0 3.0 0.01 0.76 0.74 95 1011.9
20260506141009 55 66 2.0 3.0 0.01 0.76 0.74 95 1011.9
20260506140509 55 58 2.0 5.0 0.02 0.76 0.74 95 1011.9
20260506140009 55 56 2.0 3.0 0.03 0.76 0.74 95 1011.5
20260506135439 55 45 2.0 5.0 0.06 0.76 0.74 95 1011.5